Regional Weather Roundup
Issued by NWS

Home | Current Version | Previous Version | Graphics & Text | Print | Product List | Glossary Off
Versions: 1 2 3 4 5 6 7 8 9 10 11 12 13 14 15 16 17 18 19 20 21 22 23 24 25 26 27 28 29 30 31 32 33 34 35 36 37 38 39 40 41 42 43 44 45 46 47 48 49 50

277
ASUS43 KTOP 102308
RWRKS

WEATHER ROUNDUP FOR KANSAS
NATIONAL WEATHER SERVICE GOODLAND KS
500 PM CST SAT DEC 10 2016

NOTE:  "FAIR" INDICATES FEW OR NO CLOUDS BELOW 12,000 FEET WITH NO
SIGNIFICANT WEATHER AND/OR OBSTRUCTIONS TO VISIBILITY.

KSZ001>006-013>018-027>032-041>047-110000-
NORTHWEST KANSAS

CITY           SKY/WX    TMP DP  RH WIND       PRES   REMARKS
GOODLAND       CLOUDY    34  25  69 SE10      29.76F WCI  26
HAYS           CLOUDY    38  25  59 SE10      29.89F WCI  31
HILL CITY      CLOUDY    37  25  61 S9        29.87F
RUSSELL        CLOUDY    38  25  59 S13       29.89F WCI  30
$$

KSZ061>065-074>080-084>089-110000-
SOUTHWEST KANSAS

CITY           SKY/WX    TMP DP  RH WIND       PRES   REMARKS
DODGE CITY     CLOUDY    43  28  55 S14       29.86F
ELKHART          N/A     59  29  32 S10         N/A
GARDEN CITY    CLOUDY    45  27  49 SE13      29.81F
GREAT BEND     CLOUDY    39  26  59 S12       29.91F WCI  32
LIBERAL        CLOUDY    54  30  40 SE16      29.82S
PRATT          CLOUDY    40  26  57 S15       29.92F WCI  31
$$

KSZ066>073-081>083-090>101-110000-
SOUTHEAST KANSAS

CITY           SKY/WX    TMP DP  RH WIND       PRES   REMARKS
CHANUTE        CLOUDY    41  19  41 S14       30.09F
COFFEYVILLE    CLOUDY    42  21  43 S17       30.13F
HUTCHINSON     CLOUDY    42  25  50 S20       29.95F
MEDICINE LODGE   N/A     44  28  53 SE10G23   29.93F
NEWTON         CLOUDY    39  23  52 S16       29.98F WCI  30
PARSONS        CLOUDY    42  19  39 S13G25    30.11F
WICHITA INTL   CLOUDY    42  25  50 S14       29.99F
WICHITA JABRA  CLOUDY    40  25  55 S16G24    30.00F WCI  31
WICHITA MCCONL CLOUDY    41  24  51 S21       30.00F
WINFIELD       PTCLDY    41  24  51 S14       30.05F
$$

KSZ007>012-019>026-033>040-048>060-102>105-110000-
NORTHEAST KANSAS

CITY           SKY/WX    TMP DP  RH WIND       PRES   REMARKS
CONCORDIA      CLOUDY    37  23  56 SE13      29.97F WCI  29
EMPORIA        CLOUDY    37  19  48 S12       30.06F WCI  29
LAWRENCE       CLOUDY    36  22  56 SE10      30.11F WCI  28
MANHATTAN      CLOUDY    38  21  50 SE10      30.03F WCI  31
MARYSVILLE     CLOUDY    34  21  60 SE10      30.02F WCI  26
OLATHE IND     CLOUDY    36  18  48 SE13      30.11F WCI  27
OLATHE EXE     CLOUDY    35  18  49 SE12      30.12F WCI  27
SALINA         CLOUDY    41  24  51 SE10      29.99F
TOPEKA BILLARD CLOUDY    37  21  52 SE10      30.08F WCI  30
TOPEKA FORBES  CLOUDY    38  21  50 SE10      30.08F WCI  31
$$




USA.gov is the U.S. government's official web portal to all federal, state and local government web resources and services.